Вернуться в каталог

STARLINK-36868

АктивенСвязьSSO
NORAD 68120·PAYLOAD·🇺🇸 United States

Запущен Mar 8, 2026 с Vandenberg Space Force Base

Loading…

Ближайшие Пролёты (ближайшие 24 часа)

TLE

СвежийSource: CelesTrak SupGP

Эпоха: Sep 14, 2026, 21:18 UTC

1 68120C 26044V   26257.88798611 -.00012585  00000+0 -39061-3 0  2574
2 68120  97.2852 216.9606 0002272  92.7201 152.2750 15.33448138    19

Отслеживайте STARLINK-36868 в реальном времени с AllMySat

Download on the App Store